sat.trackr.live / text

‹ back to catalog

STARLINK-3938

NORAD 52566 · 2022-051AK

PAYLOAD ACTIVE UNKNOWN

§ Identity

Operator
Country
US
Launch date
2022-05-13
Launch site
AFWTR
Launch vehicle
Mass (kg)
RCS (m²)

Purposes: comms

External: N2YO · Heavens-Above · Gunter

§ Orbital elements

Epoch: 2026-09-19T04:26:19.819104Z

Period
93.79 min
Inclination
53.1611°
Eccentricity
0.0001194
Mean motion
15.35398458 rev/d
Perigee alt
458.9 km
Apogee alt
460.6 km
Semi-major
6,837.9 km
B*
5.9137e-6
RAAN
332.4976°
Arg perigee
80.2614°
Mean anomaly
279.8524°
Rev number
24,076

§ Raw data

STARLINK-39381 52566U 22051AK  26262.18495161 -.00000174  00000+0  59137-5 0  99992 52566  53.1611 332.4976 0001194  80.2614 279.8524 15.35398458240760

JSON: /api/v1/satellites/52566 · /tle

For live sub-satellite position, see the globe view (requires WebGL).

§ Visibility from observer

Set your observer location to see the next 7 days of passes ≥ 10°. The values pass through the URL so the page stays shareable.

No JS? Fill the form by hand. The geolocation button needs JavaScript.